Terminal Aerodrome Forecast
Issued by NWS

Home | Current Version | Previous Version | Text Only | Print | Product List | Glossary On
Versions: 1 2 3 4 5 6 7 8 9 10 11 12 13
000
FTUS41 KPHI 291100
TAFMIV
TAF
KMIV 291123Z 2912/3012 36008KT P6SM BKN050 OVC100
     FM291600 36005KT P6SM SCT050 BKN150
     FM300200 02005KT P6SM OVC100=

USA.gov is the U.S. government's official web portal to all federal, state and local government web resources and services.